Flag for U.S.A. Weather past 2 weeks in Leawood, Kansas, U.S.A.

Now
50 °F

Clear.


Feels Like: 50 °F
Forecast: 49 / 70 °F
Wind: No wind

Location: Johnson County Executive Airport

Current Time: Oct 21, 2014 at 2:18:48 AM

Latest Report: Oct 21, 2014 at 1:53 AM


Visibility: 10 mi

Pressure: 30.06 "Hg

Humidity: 83%

Dew point: 45 °F

Location of LeawoodLocation

Historic Weather in Leawood — Graph

°F

Leawood temperature yesterday

Maximum temperature yesterday: 74 °F (at 2:53 PM)
Minimum temperature yesterday: 52 °F (at 7:53 AM)
Average temperature yesterday: 61 °F

Past Weeks' High & Low Weather Summary

 TemperatureHumidityPressure
High78 °F (Oct 16, 4:53 PM)100% (Oct 9, 4:53 PM)30.24 "Hg (Oct 9, 4:53 PM)
Low42 °F (Oct 19, 5:53 AM)33% (Oct 15, 3:53 PM)29.47 "Hg (Oct 13, 2:53 PM)
Average58 °F70%29.93 "Hg
* Reported Oct 6 12:53 AM — Oct 21 12:53 AM, Leawood, Weather by CustomWeather, © 2014

Note: Actual official high and low records may vary slightly from our data, if they occured in-between our weather recording intervals... More about our weather records

Advertising

Leawood weather history for previous 24 hours

 ConditionsComfort  
Time TempWeatherWind HumidityBarometerVisibility
12:53 AM
Oct 21
53 °FClear.No wind74%30.06 "Hg10 mi
11:53 PM
Oct 20
52 °FClear.5 mph77%30.06 "Hg7 mi
10:53 PM53 °FClear.No wind80%30.06 "Hg10 mi
9:53 PM52 °FClear.No wind83%30.05 "Hg10 mi
8:53 PM61 °FClear.No wind54%30.04 "Hg10 mi
7:53 PM64 °FClear.3 mph50%30.03 "Hg10 mi
6:53 PM67 °FSunny.3 mph44%30.02 "Hg10 mi
5:53 PM72 °FSunny.6 mph37%30.01 "Hg10 mi
4:53 PM74 °FSunny.6 mph35%30.01 "Hg10 mi
3:53 PM74 °FSunny.8 mph37%30.00 "Hg10 mi
2:53 PM74 °FSunny.7 mph38%30.01 "Hg10 mi
1:53 PM72 °FSunny.7 mph44%30.02 "Hg10 mi
12:53 PM71 °FSunny.8 mph49%30.03 "Hg10 mi
11:53 AM67 °FSunny.10 mph61%30.05 "Hg10 mi
10:53 AM64 °FSunny.8 mph70%30.04 "Hg10 mi
9:53 AM61 °FSunny.8 mph78%30.04 "Hg10 mi
8:53 AM56 °FSunny.No wind93%30.03 "Hg10 mi
7:53 AM52 °FClear.5 mph100%30.00 "Hg8 mi
6:53 AM53 °FClear.5 mph96%29.99 "Hg10 mi
5:53 AM54 °FClear.5 mph93%29.98 "Hg10 mi
4:53 AM53 °FClear.3 mph96%29.98 "Hg10 mi
3:53 AM54 °FClear.5 mph93%29.98 "Hg10 mi
2:53 AM56 °FClear.6 mph87%29.99 "Hg10 mi
Weather by CustomWeather, © 2014

See weather overviewHow to use our weather pages